H1 CPF 2 NER 2024 11 9 9 314 01 glonass127 H2 1106403 9127 37869 2024 11 9 0 0 0 2024 11 12 23 45 0 900 1 1 0 0 0 1 H9 10 0 60623 0.00000 0 12347247.194 -2436517.086 -22139535.021 10 0 60623 900.00000 0 14368511.668 -681506.077 -21021783.202 10 0 60623 1800.00000 0 16384938.504 818514.743 -19494045.344 10 0 60623 2700.00000 0 18331351.774 2045637.390 -17586376.918 10 0 60623 3600.00000 0 20142201.656 2994735.998 -15336212.702 10 0 60623 4500.00000 0 21754235.082 3673409.943 -12787611.336 10 0 60623 5400.00000 0 23109081.679 4101385.526 -9990373.171 10 0 60623 6300.00000 0 24155646.571 4309405.195 -6999050.390 10 0 60623 7200.00000 0 24852210.346 4337654.797 -3871870.277 10 0 60623 8100.00000 0 25168149.530 4233798.440 -669593.857 10 0 60623 9000.00000 0 25085207.386 4050706.497 2545667.092 10 0 60623 9900.00000 0 24598264.080 3843974.422 5711651.240 10 0 60623 10800.00000 0 23715576.454 3669337.978 8767144.016 10 0 60623 11700.00000 0 22458479.701 3580093.906 11653146.587 10 0 60623 12600.00000 0 20860565.407 3624633.972 14313996.084 10 0 60623 13500.00000 0 18966371.636 3844194.879 16698417.169 10 0 60623 14400.00000 0 16829640.241 4270916.986 18760486.748 10 0 60623 15300.00000 0 14511213.740 4926291.685 20460495.463 10 0 60623 16200.00000 0 12076658.029 5820061.117 21765691.698 10 0 60623 17100.00000 0 9593707.772 6949615.485 22650895.940 10 0 60623 18000.00000 0 7129638.000 8299913.042 23098975.407 10 0 60623 18900.00000 0 4748668.061 9843926.933 23101171.102 10 0 60623 19800.00000 0 2509502.666 11543601.932 22657271.523 10 0 60623 20700.00000 0 463109.368 13351283.634 21775629.552 10 0 60623 21600.00000 0 -1349177.470 15211563.587 20473021.232 10 0 60623 22500.00000 0 -2897148.923 17063466.779 18774347.511 10 0 60623 23400.00000 0 -4162748.488 18842893.510 16712182.508 10 0 60623 24300.00000 0 -5140590.858 20485216.608 14326174.411 10 0 60623 25200.00000 0 -5837949.880 21927927.655 11662307.827 10 0 60623 26100.00000 0 -6274214.755 23113222.723 8772039.182 10 0 60623 27000.00000 0 -6479835.565 23990419.446 5711319.601 10 0 60623 27900.00000 0 -6494800.779 24518103.097 2539522.386 10 0 60623 28800.00000 0 -6366709.492 24665909.570 -681705.161 10 0 60623 29700.00000 0 -6148519.029 24415867.612 -3889643.559 10 0 60623 30600.00000 0 -5896063.114 23763240.666 -7021732.799 10 0 60623 31500.00000 0 -5665446.534 22716829.607 -10016808.573 10 0 60623 32400.00000 0 -5510428.354 21298720.617 -12816317.230 10 0 60623 33300.00000 0 -5479906.981 19543486.356 -15365483.555 10 0 60623 34200.00000 0 -5615616.555 17496872.352 -17614406.161 10 0 60623 35100.00000 0 -5950135.374 15214023.113 -19519056.728 10 0 60623 36000.00000 0 -6505293.685 12757322.561 -21042161.416 10 0 60623 36900.00000 0 -7291050.894 10193940.408 -22153945.425 10 0 60623 37800.00000 0 -8304891.694 7593188.781 -22832724.848 10 0 60623 38700.00000 0 -9531767.980 5023801.587 -23065333.555 10 0 60623 39600.00000 0 -10944589.479 2551252.224 -22847376.571 10 0 60623 40500.00000 0 -12505242.156 235223.190 -22183305.408 10 0 60623 41400.00000 0 -14166090.602 -1872665.890 -21086314.754 10 0 60623 42300.00000 0 -15871899.686 -3730776.841 -19578063.823 10 0 60623 43200.00000 0 -17562092.957 -5308938.925 -17688229.396 10 0 60623 44100.00000 0 -19173251.106 -6589441.982 -15453901.075 10 0 60623 45000.00000 0 -20641743.882 -7567497.863 -12918832.459 10 0 60623 45900.00000 0 -21906383.774 -8251154.272 -10132564.749 10 0 60623 46800.00000 0 -22910989.379 -8660668.419 -7149441.654 10 0 60623 47700.00000 0 -23606750.900 -8827370.731 -4027536.386 10 0 60623 48600.00000 0 -23954299.207 -8792070.085 -827512.927 10 0 60623 49500.00000 0 -23925393.046 -8603070.926 2388555.472 10 0 60623 50400.00000 0 -23504155.488 -8313888.227 5558387.122 10 0 60623 51300.00000 0 -22687809.941 -7980758.156 8620688.969 10 0 60623 52200.00000 0 -21486887.094 -7660049.931 11516327.363 10 0 60623 53100.00000 0 -19924896.086 -7405687.590 14189451.112 10 0 60623 54000.00000 0 -18037475.094 -7266689.132 16588546.794 10 0 60623 54900.00000 0 -15871057.527 -7284924.915 18667408.080 10 0 60623 55800.00000 0 -13481109.333 -7493187.626 20386002.579 10 0 60623 56700.00000 0 -10930009.800 -7913653.018 21711221.898 10 0 60623 57600.00000 0 -8284662.100 -8556794.525 22617502.602 10 0 60623 58500.00000 0 -5613930.296 -9420796.409 23087307.924 10 0 60623 59400.00000 0 -2986006.179 -10491490.035 23111462.238 10 0 60623 60300.00000 0 -465811.946 -11742816.915 22689332.455 10 0 60623 61200.00000 0 1887456.572 -13137801.007 21828852.706 10 0 60623 62100.00000 0 4022546.872 -14629992.227 20546390.927 10 0 60623 63000.00000 0 5898036.856 -16165323.974 18866458.289 10 0 60623 63900.00000 0 7483814.741 -17684310.230 16821264.898 10 0 60623 64800.00000 0 8762090.484 -19124493.440 14450127.760 10 0 60623 65700.00000 0 9727896.029 -20423043.211 11798739.661 10 0 60623 66600.00000 0 10389052.240 -21519398.629 8918310.484 10 0 60623 67500.00000 0 10765602.309 -22357844.030 5864595.209 10 0 60623 68400.00000 0 10888733.648 -22889909.577 2696825.624 10 0 60623 69300.00000 0 10799232.035 -23076494.197 -523434.642 10 0 60623 70200.00000 0 10545532.012 -22889619.071 -3733489.863 10 0 60623 71100.00000 0 10181445.411 -22313734.739 -6870742.979 10 0 60623 72000.00000 0 9763664.368 -21346523.332 -9873932.232 10 0 60623 72900.00000 0 9349145.689 -19999158.706 -12684347.771 10 0 60623 73800.00000 0 8992489.291 -18296010.536 -15247002.383 10 0 60623 74700.00000 0 8743424.270 -16273802.447 -17511731.014 10 0 60623 75600.00000 0 8644511.944 -13980258.087 -19434195.275 10 0 60623 76500.00000 0 8729166.027 -11472291.427 -20976771.129 10 0 60623 77400.00000 0 9020076.364 -8813817.528 -22109300.579 10 0 60623 78300.00000 0 9528105.061 -6073276.542 -22809691.366 10 0 60623 79200.00000 0 10251703.112 -3320976.081 -23064352.200 10 0 60623 80100.00000 0 11176872.844 -626364.799 -22868454.811 10 0 60623 81000.00000 0 12277677.634 1944647.347 -22226018.084 10 0 60623 81900.00000 0 13517276.547 4332209.111 -21149813.458 10 0 60623 82800.00000 0 14849438.816 6484782.564 -19661094.722 10 0 60623 83700.00000 0 16220472.538 8361038.524 -17789159.047 10 0 60623 84600.00000 0 17571484.340 9931314.970 -15570749.607 10 0 60623 85500.00000 0 18840872.978 11178579.642 -13049313.377 10 0 60624 0.00000 0 19966950.197 12098859.503 -10274130.754 10 0 60624 900.00000 0 20890578.025 12701123.089 -7299334.220 10 0 60624 1800.00000 0 21557709.614 13006623.395 -4182840.604 10 0 60624 2700.00000 0 21921728.967 13047734.398 -985214.036 10 0 60624 3600.00000 0 21945490.548 12866332.392 2231513.740 10 0 60624 4500.00000 0 21602975.166 12511793.696 5405043.756 10 0 60624 5400.00000 0 20880494.333 12038695.059 8474007.535 10 0 60624 6300.00000 0 19777394.579 11504314.729 11379139.616 10 0 60624 7200.00000 0 18306234.126 10966039.549 14064403.341 10 0 60624 8100.00000 0 16492426.004 10478786.479 16478049.889 10 0 60624 9000.00000 0 14373363.445 10092545.508 18573592.160 10 0 60624 9900.00000 0 11997064.145 9850145.271 20310676.973 10 0 60624 10800.00000 0 9420389.125 9785333.102 21655841.134 10 0 60624 11700.00000 0 6706908.591 9921248.086 22583138.969 10 0 60624 12600.00000 0 3924501.116 10269349.671 23074631.070 10 0 60624 13500.00000 0 1142782.769 10828845.935 23120726.142 10 0 60624 14400.00000 0 -1569530.478 11586645.580 22720370.028 10 0 60624 15300.00000 0 -4147220.971 12517836.723 21881078.146 10 0 60624 16200.00000 0 -6531023.457 13586674.368 20618809.854 10 0 60624 17100.00000 0 -8669835.677 14748037.851 18957685.573 10 0 60624 18000.00000 0 -10522595.229 15949300.207 16929549.945 10 0 60624 18900.00000 0 -12059745.414 17132534.212 14573386.922 10 0 60624 19800.00000 0 -13264228.882 18236965.337 11934595.260 10 0 60624 20700.00000 0 -14131966.607 19201570.743 9064135.824 10 0 60624 21600.00000 0 -14671800.695 19967716.306 6017564.796 10 0 60624 22500.00000 0 -14904901.594 20481720.848 2853969.667 10 0 60624 23400.00000 0 -14863662.769 20697238.608 -365172.469 10 0 60624 24300.00000 0 -14590127.886 20577357.520 -3577192.535 10 0 60624 25200.00000 0 -14134015.872 20096321.939 -6719459.329 10 0 60624 26100.00000 0 -13550427.050 19240803.793 -9730616.482 10 0 60624 27000.00000 0 -12897327.961 18010664.933 -12551800.693 10 0 60624 27900.00000 0 -12232922.730 16419175.136 -15127815.314 10 0 60624 28800.00000 0 -11613024.292 14492673.655 -17408233.971 10 0 60624 29700.00000 0 -11088539.331 12269686.336 -19348410.282 10 0 60624 30600.00000 0 -10703176.055 9799534.109 -20910371.796 10 0 60624 31500.00000 0 -10491474.382 7140490.867 -22063578.800 10 0 60624 32400.00000 0 -10477244.029 4357568.401 -22785531.843 10 0 60624 33300.00000 0 -10672478.082 1520022.180 -23062215.306 10 0 60624 34200.00000 0 -11076788.740 -1301316.184 -22888368.123 10 0 60624 35100.00000 0 -11677389.068 -4036766.767 -22267576.685 10 0 60624 36000.00000 0 -12449620.687 -6620474.256 -21212188.956 10 0 60624 36900.00000 0 -13358003.687 -8992913.444 -19743052.694 10 0 60624 37800.00000 0 -14357762.508 -11103122.626 -17889084.498 10 0 60624 38700.00000 0 -15396761.188 -12910572.349 -15686679.839 10 0 60624 39600.00000 0 -16417764.151 -14386593.021 -13178977.520 10 0 60624 40500.00000 0 -17360925.143 -15515304.182 -10414994.844 10 0 60624 41400.00000 0 -18166397.823 -16294009.693 -7448652.133 10 0 60624 42300.00000 0 -18776956.923 -16733045.911 -4337707.273 10 0 60624 43200.00000 0 -19140519.229 -16855093.061 -1142622.340 10 0 60624 44100.00000 0 -19212458.588 -16693982.408 2074614.756 10 0 60624 45000.00000 0 -18957618.471 -16293052.631 5251690.231 10 0 60624 45900.00000 0 -18351939.019 -15703127.072 8327162.789 10 0 60624 46800.00000 0 -17383631.951 -14980198.613 11241637.853 10 0 60624 47700.00000 0 -16053855.887 -14182920.245 13938896.077 10 0 60624 48600.00000 0 -14376865.336 -13370006.547 16366956.003 10 0 60624 49500.00000 0 -12379628.201 -12597654.088 18479052.442 10 0 60624 50400.00000 0 -10100928.109 -11917087.266 20234513.930 10 0 60624 51300.00000 0 -7589988.534 -11372330.330 21599524.729 10 0 60624 52200.00000 0 -4904674.565 -10998296.714 22547758.868 10 0 60624 53100.00000 0 -2109344.906 -10819273.709 23060875.883 10 0 60624 54000.00000 0 727559.607 -10847864.446 23128870.019 10 0 60624 54900.00000 0 3536094.248 -11084430.789 22750266.880 10 0 60624 55800.00000 0 6247451.921 -11517060.648 21932163.625 10 0 60624 56700.00000 0 8796561.701 -12122062.211 20690111.125 10 0 60624 57600.00000 0 11124539.421 -12864966.340 19047838.767 10 0 60624 58500.00000 0 13180890.602 -13701997.647 17036825.084 10 0 60624 59400.00000 0 14925375.361 -14581955.363 14695719.920 10 0 60624 60300.00000 0 16329457.904 -15448427.830 12069626.535 10 0 60624 61200.00000 0 17377279.489 -16242249.850 9209254.880 10 0 60624 62100.00000 0 18066112.861 -16904101.137 6169960.010 10 0 60624 63000.00000 0 18406277.263 -17377137.065 3010682.408 10 0 60624 63900.00000 0 18420515.611 -17609540.357 -207190.395 10 0 60624 64800.00000 0 18142858.142 -17556884.525 -3421019.227 10 0 60624 65700.00000 0 17617018.975 -17184206.831 -6568142.106 10 0 60624 66600.00000 0 16894392.448 -16467700.014 -9587111.440 10 0 60624 67500.00000 0 16031733.885 -15395947.794 -12418913.779 10 0 60624 68400.00000 0 15088623.658 -13970648.322 -15008146.196 10 0 60624 69300.00000 0 14124823.368 -12206791.740 -17304123.931 10 0 60624 70200.00000 0 13197638.113 -10132281.566 -19261895.277 10 0 60624 71100.00000 0 12359398.851 -7787013.853 -20843141.702 10 0 60624 72000.00000 0 11655173.751 -5221451.723 -22016943.721 10 0 60624 72900.00000 0 11120807.483 -2494754.904 -22760396.207 10 0 60624 73800.00000 0 10781372.888 327456.828 -23059060.276 10 0 60624 74700.00000 0 10650101.401 3175611.511 -22907242.661 10 0 60624 75600.00000 0 10727837.446 5978857.903 -22308097.413 10 0 60624 76500.00000 0 11003039.136 8667790.342 -21273548.747 10 0 60624 77400.00000 0 11452323.759 11177110.601 -19824037.737 10 0 60624 78300.00000 0 12041532.955 13448115.004 -17988099.401 10 0 60624 79200.00000 0 12727270.188 15430903.103 -15801780.151 10 0 60624 80100.00000 0 13458843.016 17086216.583 -13307908.944 10 0 60624 81000.00000 0 14180525.715 18386833.389 -10555238.256 10 0 60624 81900.00000 0 14834044.632 19318461.361 -7597473.448 10 0 60624 82800.00000 0 15361179.776 19880097.187 -4492211.141 10 0 60624 83700.00000 0 15706371.985 20083839.218 -1299808.568 10 0 60624 84600.00000 0 15819225.518 19954165.689 1917793.140 10 0 60624 85500.00000 0 15656801.127 19526712.050 5098268.388 10 0 60625 0.00000 0 15185604.196 18846601.748 8180105.788 10 0 60625 900.00000 0 14383185.553 17966402.290 11103785.128 10 0 60625 1800.00000 0 13239290.083 16943794.599 13812906.864 10 0 60625 2700.00000 0 11756505.721 15839052.496 16255259.508 10 0 60625 3600.00000 0 9950387.426 14712438.188 18383802.186 10 0 60625 4500.00000 0 7849051.384 13621621.090 20157547.340 10 0 60625 5400.00000 0 5492256.220 12619226.054 21542328.621 10 0 60625 6300.00000 0 2930008.458 11750611.215 22511441.429 10 0 60625 7200.00000 0 220748.331 11051966.049 23046145.580 10 0 60625 8100.00000 0 -2570811.342 10548807.139 23136021.831 10 0 60625 9000.00000 0 -5376106.773 10254933.113 22779176.089 10 0 60625 9900.00000 0 -8125308.311 10171881.836 21982287.322 10 0 60625 10800.00000 0 -10749965.303 10288912.842 20760497.476 10 0 60625 11700.00000 0 -13185604.124 10583516.911 19137143.952 10 0 60625 12600.00000 0 -15374173.932 11022433.325 17143337.713 10 0 60625 13500.00000 0 -17266240.163 11563134.551 14817392.601 10 0 60625 14400.00000 0 -18822835.124 12155718.561 12204114.116 10 0 60625 15300.00000 0 -20016888.212 12745131.632 9353958.748 10 0 60625 16200.00000 0 -20834174.862 13273629.931 6322077.709 10 0 60625 17100.00000 0 -21273742.717 13683377.197 3167261.647 10 0 60625 18000.00000 0 -21347794.978 13919069.023 -49194.336 10 0 60625 18900.00000 0 -21081033.655 13930471.886 -3264683.844 10 0 60625 19800.00000 0 -20509488.456 13674767.680 -6416516.971 10 0 60625 20700.00000 0 -19678879.305 13118601.760 -9443157.703 10 0 60625 21600.00000 0 -18642580.993 12239744.523 -12285445.155 10 0 60625 22500.00000 0 -17459276.116 11028292.633 -14887772.693 10 0 60625 23400.00000 0 -16190396.463 9487355.538 -17199199.535 10 0 60625 24300.00000 0 -14897462.685 7633195.180 -19174470.738 10 0 60625 25200.00000 0 -13639436.710 5494810.396 -20774923.445 10 0 60625 26100.00000 0 -12470201.082 3112981.836 -21969259.799 10 0 60625 27000.00000 0 -11436273.763 538816.680 -22734170.000 10 0 60625 27900.00000 0 -10574856.593 -2168145.802 -23054792.507 10 0 60625 28800.00000 0 -9912300.856 -4942187.709 -22925002.065 10 0 60625 29700.00000 0 -9463054.915 -7713929.509 -22347520.211 10 0 60625 30600.00000 0 -9229137.778 -10413003.905 -21333846.866 10 0 60625 31500.00000 0 -9200159.334 -12970773.512 -19904015.531 10 0 60625 32400.00000 0 -9353884.333 -15322977.780 -18086178.442 10 0 60625 33300.00000 0 -9657313.671 -17412198.256 -15916031.505 10 0 60625 34200.00000 0 -10068234.434 -19190039.449 -13436092.181 10 0 60625 35100.00000 0 -10537170.394 -20618935.337 -10694846.331 10 0 60625 36000.00000 0 -11009647.910 -21673507.918 -7745782.497 10 0 60625 36900.00000 0 -11428679.378 -22341423.619 -4646334.116 10 0 60625 37800.00000 0 -11737357.832 -22623714.876 -1456751.634 10 0 60625 38700.00000 0 -11881452.367 -22534556.893 1761072.589 10 0 60625 39600.00000 0 -11811894.860 -22100512.311 4944803.210 10 0 60625 40500.00000 0 -11487053.825 -21359278.587 8032861.438 10 0 60625 41400.00000 0 -10874700.830 -20357993.074 10965602.558 10 0 60625 42300.00000 0 -9953588.336 -19151168.551 13686449.726 10 0 60625 43200.00000 0 -8714574.268 -17798346.423 16142963.797 10 0 60625 44100.00000 0 -7161247.556 -16361565.624 18287830.577 10 0 60625 45000.00000 0 -5310029.358 -14902751.989 20079748.683 10 0 60625 45900.00000 0 -3189745.935 -13481135.359 21484203.283 10 0 60625 46800.00000 0 -840690.335 -12150799.962 22474113.055 10 0 60625 47700.00000 0 1686789.574 -10958467.783 23030339.749 10 0 60625 48600.00000 0 4334120.360 -9941605.037 23142051.991 10 0 60625 49500.00000 0 7036676.633 -9126928.740 22806937.040 10 0 60625 50400.00000 0 9726212.189 -8529374.395 22031256.405 10 0 60625 51300.00000 0 12333451.376 -8151567.414 20829743.506 10 0 60625 52200.00000 0 14790736.476 -7983820.726 19225343.821 10 0 60625 53100.00000 0 17034623.953 -8004659.888 17248800.455 10 0 60625 54000.00000 0 19008323.686 -8181855.524 14938090.561 10 0 60625 54900.00000 0 20663880.748 -8473921.993 12337720.776 10 0 60625 55800.00000 0 21964008.817 -8832021.583 9497892.581 10 0 60625 56700.00000 0 22883497.767 -9202196.055 6473551.316 10 0 60625 57600.00000 0 23410134.860 -9527832.881 3323335.331 10 0 60625 58500.00000 0 23545098.706 -9752262.607 108444.421 10 0 60625 59400.00000 0 23302807.016 -9821377.163 -3108550.979 10 0 60625 60300.00000 0 22710222.222 -9686156.937 -6264936.421 10 0 60625 61200.00000 0 21805642.295 -9304997.306 -9299090.933 10 0 60625 62100.00000 0 20637026.498 -8645733.093 -12151709.622 10 0 60625 63000.00000 0 19259926.223 -7687271.764 -14766985.439 10 0 60625 63900.00000 0 17735108.663 -6420762.647 -17093724.667 10 0 60625 64800.00000 0 16125974.722 -4850249.361 -19086371.952 10 0 60625 65700.00000 0 14495881.873 -2992774.948 -20705922.640 10 0 60625 66600.00000 0 12905486.968 -877933.073 -21920702.667 10 0 60625 67500.00000 0 11410223.110 1453117.207 -22706999.345 10 0 60625 68400.00000 0 10058018.752 3949132.260 -23049529.835 10 0 60625 69300.00000 0 8887356.417 6550697.815 -22941737.797 10 0 60625 70200.00000 0 7925753.309 9192494.945 -22385912.686 10 0 60625 71100.00000 0 7188727.465 11805821.936 -21393130.087 10 0 60625 72000.00000 0 6679291.799 14321265.082 -19983015.431 10 0 60625 72900.00000 0 6387995.287 16671405.463 -18183337.235 10 0 60625 73800.00000 0 6293506.887 18793447.702 -16029439.538 10 0 60625 74700.00000 0 6363714.456 20631660.494 -13563526.556 10 0 60625 75600.00000 0 6557289.047 22139527.350 -10833815.426 10 0 60625 76500.00000 0 6825645.393 23281518.879 -7893575.419 10 0 60625 77400.00000 0 7115213.034 24034414.447 -4800074.061 10 0 60625 78300.00000 0 7369920.014 24388120.538 -1613452.055 10 0 60625 79200.00000 0 7533782.789 24345954.641 1604450.108 10 0 60625 80100.00000 0 7553492.431 23924385.959 4791290.491 10 0 60625 81000.00000 0 7380888.131 23152246.929 7885425.760 10 0 60625 81900.00000 0 6975214.622 22069451.232 10827090.275 10 0 60625 82800.00000 0 6305069.757 20725273.952 13559532.468 10 0 60625 83700.00000 0 5349961.940 19176266.999 16030088.197 10 0 60625 84600.00000 0 4101413.542 17483897.123 18191172.372 10 0 60625 85500.00000 0 2563565.214 15712004.451 20001171.973 10 0 60626 0.00000 0 753256.615 13924186.179 21425225.496 10 0 60626 900.00000 0 -1300421.062 12181211.346 22435876.777 10 0 60626 1800.00000 0 -3557080.671 10538574.211 23013590.657 10 0 60626 2700.00000 0 -5966468.187 9044282.314 23147124.562 10 0 60626 3600.00000 0 -8470306.209 7736971.279 22833747.603 10 0 60626 4500.00000 0 -11004479.440 6644422.063 22079303.866 10 0 60626 5400.00000 0 -13501474.758 5782541.387 20898117.770 10 0 60626 6300.00000 0 -15892978.036 5154847.557 19312741.874 10 0 60626 7200.00000 0 -18112522.829 4752483.639 17353549.901 10 0 60626 8100.00000 0 -20098083.223 4554758.693 15058180.328 10 0 60626 9000.00000 0 -21794504.377 4530196.158 12470838.528 10 0 60626 9900.00000 0 -23155669.870 4638047.420 9641468.254 10 0 60626 10800.00000 0 -24146314.781 4830208.895 6624806.042 10 0 60626 11700.00000 0 -24743407.160 5053463.431 3479334.884 10 0 60626 12600.00000 0 -24937037.790 5251952.400 266156.169 10 0 60626 13500.00000 0 -24730778.293 5369774.025 -2952198.714 10 0 60626 14400.00000 0 -24141489.845 5353597.161 -6112993.813 10 0 60626 15300.00000 0 -23198588.117 5155178.015 -9154526.150 10 0 60626 16200.00000 0 -21942793.545 4733670.538 -12017349.661 10 0 60626 17100.00000 0 -20424418.441 4057629.454 -14645459.561 10 0 60626 18000.00000 0 -18701262.915 3106617.563 -16987411.641 10 0 60626 18900.00000 0 -16836208.857 1872345.870 -18997352.267 10 0 60626 19800.00000 0 -14894614.620 359295.146 -20635936.724 10 0 60626 20700.00000 0 -12941621.947 -1415209.869 -21871116.017 10 0 60626 21600.00000 0 -11039490.451 -3421478.577 -22678775.348 10 0 60626 22500.00000 0 -9245073.695 -5618465.843 -23043210.823 10 0 60626 23400.00000 0 -7607544.469 -7955274.135 -22957434.762 10 0 60626 24300.00000 0 -6166465.751 -10373082.851 -22423303.805 10 0 60626 25200.00000 0 -4950288.405 -12807422.862 -21451468.047 10 0 60626 26100.00000 0 -3975337.907 -15190699.485 -20061143.331 10 0 60626 27000.00000 0 -3245330.898 -17454856.815 -18279712.645 10 0 60626 27900.00000 0 -2751439.318 -19534070.659 -16142166.142 10 0 60626 28800.00000 0 -2472896.274 -21367356.562 -13690392.638 10 0 60626 29700.00000 0 -2378114.637 -22900983.628 -10972338.336 10 0 60626 30600.00000 0 -2426267.620 -24090593.705 -8041051.041 10 0 60626 31500.00000 0 -2569261.429 -24902938.534 -4953630.234 10 0 60626 32400.00000 0 -2754013.860 -25317164.158 -1770104.832 10 0 60626 33300.00000 0 -2924940.588 -25325591.394 1447738.499 10 0 60626 34200.00000 0 -3026542.894 -24933962.544 4637553.109 10 0 60626 35100.00000 0 -3005987.218 -24161146.950 7737632.956 10 0 60626 36000.00000 0 -2815568.105 -23038320.423 10688093.285 10 0 60626 36900.00000 0 -2414951.844 -21607655.034 13432009.603 10 0 60626 37800.00000 0 -1773107.792 -19920575.487 15916494.544 10 0 60626 38700.00000 0 -869847.849 -18035655.428 18093693.849 10 0 60626 39600.00000 0 303089.067 -16016241.110 19921684.495 10 0 60626 40500.00000 0 1741451.974 -13927900.145 21365260.032 10 0 60626 41400.00000 0 3428416.346 -11835799.547 22396590.284 10 0 60626 42300.00000 0 5335049.282 -9802119.614 22995744.612 10 0 60626 43200.00000 0 7421283.325 -7883608.394 23151070.162 10 0 60626 44100.00000 0 9637360.679 -6129375.634 22859418.596 10 0 60626 45000.00000 0 11925690.629 -4579015.625 22126217.032 10 0 60626 45900.00000 0 14223046.308 -3261135.218 20965381.120 10 0 60626 46800.00000 0 16463012.992 -2192347.316 19399070.476 10 0 60626 47700.00000 0 18578589.299 -1376771.701 17457289.168 10 0 60626 48600.00000 0 20504835.782 -806064.636 15177336.435 10 0 60626 49500.00000 0 22181462.468 -459977.379 12603115.501 10 0 60626 50400.00000 0 23555248.255 -307421.918 9784311.153 10 0 60626 51300.00000 0 24582190.933 -308001.046 6775449.496 10 0 60626 52200.00000 0 25229296.664 -413940.083 3634856.138 10 0 60626 53100.00000 0 25475931.840 -572339.996 423531.668 10 0 60626 54000.00000 0 25314677.940 -727657.239 -2796034.303 10 0 60626 54900.00000 0 24751650.533 -824305.051 -5961087.276 10 0 60626 55800.00000 0 23806266.151 -809264.780 -9009845.372 10 0 60626 56700.00000 0 22510464.384 -634594.441 -11882724.480 10 0 60626 57600.00000 0 20907416.154 -259725.383 -14523525.134 10 0 60626 58500.00000 0 19049771.590 346553.501 -16880555.553 10 0 60626 59400.00000 0 16997521.200 1204511.457 -18907666.545 10 0 60626 60300.00000 0 14815561.028 2322361.705 -20565175.828 10 0 60626 61200.00000 0 12571065.624 3695667.335 -21820661.722 10 0 60626 62100.00000 0 10330780.997 5307294.449 -22649609.254 10 0 60626 63000.00000 0 8158353.088 7127915.928 -23035895.094 10 0 60626 63900.00000 0 6111805.609 9117045.072 -22972101.431 10 0 60626 64800.00000 0 4241274.184 11224555.404 -22459652.864 10 0 60626 65700.00000 0 2587092.252 13392621.884 -21508774.285 10 0 60626 66600.00000 0 1178308.595 15558000.667 -20138271.727 10 0 60626 67500.00000 0 31697.266 17654550.215 -18375141.913 10 0 60626 68400.00000 0 -848700.786 19615886.581 -16254019.880 10 0 60626 69300.00000 0 -1471488.149 21378060.316 -13816477.347 10 0 60626 70200.00000 0 -1857280.721 22882142.129 -11110187.466 10 0 60626 71100.00000 0 -2037567.142 24076608.892 -8187974.100 10 0 60626 72000.00000 0 -2053109.591 24919430.668 -5106765.905 10 0 60626 72900.00000 0 -1951956.728 25379772.702 -1926477.014 10 0 60626 73800.00000 0 -1787155.328 25439243.070 1291162.864 10 0 60626 74700.00000 0 -1614259.070 25092636.156 4483805.561 10 0 60626 75600.00000 0 -1488740.667 24348143.485 7589685.489 10 0 60626 76500.00000 0 -1463416.579 23227025.664 10548801.842 10 0 60626 77400.00000 0 -1585992.251 21762761.375 13304060.114 10 0 60626 78300.00000 0 -1896829.930 19999710.613 15802352.423 10 0 60626 79200.00000 0 -2427031.356 17991348.777 17995557.835 10 0 60626 80100.00000 0 -3196914.173 15798145.182 19841445.571 10 0 60626 81000.00000 0 -4214944.555 13485173.341 21304466.113 10 0 60626 81900.00000 0 -5477169.867 11119550.600 22356417.227 10 0 60626 82800.00000 0 -6967174.980 8767811.081 22976974.029 10 0 60626 83700.00000 0 -8656564.821 6493318.209 23154074.390 10 0 60626 84600.00000 0 -10505954.741 4353821.254 22884153.116 10 0 60626 85500.00000 0 -12466429.845 2399254.640 22172220.484 99